GW6861 Weather Reports


time (UTC)temp
F
wind
direction
speed
knots
gust
knots
rain 1hr
in
rain 24hr
in
rain mn
in
humidity
%
barometer
mb
20260507164003 57 334 1.7 11.3 0.00 0.29 0.00 42 1006.8
20260507163713 58 342 2.6 11.3 0.00 0.29 0.00 48 1006.7
20260507163003 57 356 3.5 11.3 0.00 0.29 0.00 44 1006.7
20260507162505 56 348 2.6 8.7 0.00 0.29 0.00 47 1006.8
20260507162003 56 325 1.7 10.4 0.00 0.29 0.00 44 1006.9
20260507161503 55 349 2.6 12.2 0.00 0.29 0.00 46 1006.9
20260507161003 54 355 2.6 12.2 0.00 0.29 0.00 44 1006.9
20260507160503 56 338 0.9 8.7 0.00 0.29 0.00 44 1006.9
20260507160003 56 10 0.9 3.5 0.00 0.29 0.00 48 1006.9
20260507155505 56 25 0.0 3.5 0.00 0.29 0.00 45 1006.9
20260507155003 58 291 1.7 8.7 0.00 0.29 0.00 48 1006.9
20260507154503 57 342 2.6 8.7 0.00 0.29 0.00 50 1006.9
20260507154003 56 360 3.5 11.3 0.00 0.29 0.00 45 1007.0
20260507153504 56 347 1.7 11.3 0.00 0.29 0.00 45 1006.9
20260507153214 56 343 0.9 9.6 0.00 0.29 0.00 45 1007.0
20260507152715 56 337 0.9 9.6 0.00 0.29 0.00 45 1007.0
20260507152005 57 314 0.9 7.8 0.00 0.29 0.00 55 1007.2
20260507151508 56 349 0.9 10.4 0.00 0.29 0.00 50 1007.2
20260507151214 56 2 2.6 17.4 0.00 0.29 0.00 47 1007.2
20260507150503 54 9 4.3 17.4 0.00 0.29 0.00 47 1007.2
20260507150213 55 5 2.6 13.0 0.00 0.29 0.00 50 1007.2
20260507145505 56 304 0.9 5.2 0.00 0.29 0.00 56 1007.2
20260507145003 55 346 1.7 7.8 0.00 0.29 0.00 54 1007.3
20260507144503 53 340 2.6 9.6 0.00 0.29 0.00 54 1007.2
20260507144003 55 334 1.7 9.6 0.00 0.29 0.00 60 1007.1
20260507143505 54 294 0.9 9.6 0.00 0.29 0.00 52 1006.9
20260507143003 56 205 0.9 9.6 0.00 0.29 0.00 58 1007.0
20260507142503 57 348 0.9 5.2 0.00 0.29 0.00 59 1007.0
20260507142213 56 344 0.9 5.2 0.00 0.29 0.00 60 1006.9
20260507141714 55 337 0.9 5.2 0.00 0.29 0.00 56 1007.0
20260507141003 55 349 0.9 7.8 0.00 0.29 0.00 67 1006.9
20260507140503 54 28 0.9 7.0 0.00 0.29 0.00 64 1007.1
20260507140003 53 59 0.0 5.2 0.00 0.29 0.00 70 1007.0
20260507135503 52 0 0.0 0.0 0.00 0.29 0.00 73 1007.0
20260507135005 52 0 0.0 0.0 0.00 0.29 0.00 68 1007.0
20260507134503 52 0 0.0 0.0 0.00 0.29 0.00 71 1007.1
20260507134213 52 0 0.0 0.0 0.00 0.29 0.00 67 1007.1
20260507133503 52 348 0.0 4.3 0.00 0.29 0.00 70 1007.0
20260507133005 53 350 0.0 4.3 0.00 0.29 0.00 68 1007.1
20260507132503 52 17 0.0 1.7 0.00 0.29 0.00 70 1007.2
20260507132003 52 0 0.0 0.0 0.00 0.29 0.00 73 1007.3
20260507131714 52 240 0.0 1.7 0.00 0.29 0.00 74 1007.3
20260507131008 52 3 0.9 7.0 0.00 0.29 0.00 70 1007.3
20260507130503 51 335 0.9 7.0 0.00 0.29 0.00 72 1007.4
20260507130213 51 320 0.9 7.0 0.00 0.29 0.00 70 1007.4
20260507125503 51 328 0.9 6.1 0.00 0.29 0.00 70 1007.5
20260507125213 51 350 0.9 7.8 0.00 0.29 0.00 72 1007.5
20260507124716 52 29 0.9 7.8 0.00 0.29 0.00 72 1007.5
20260507124003 50 64 0.9 3.5 0.00 0.29 0.00 72 1007.3
20260507123714 50 360 0.0 3.5 0.00 0.29 0.00 73 1007.3
20260507123213 50 8 0.9 4.3 0.00 0.29 0.00 73 1007.3
20260507122503 50 356 0.9 4.3 0.00 0.29 0.00 73 1007.3
20260507122004 50 13 0.9 6.1 0.00 0.29 0.00 73 1007.2
20260507121715 50 18 0.9 6.1 0.00 0.29 0.00 74 1007.3
20260507121003 50 205 0.0 2.6 0.00 0.29 0.00 76 1007.3
20260507120503 50 205 0.0 2.6 0.00 0.29 0.00 74 1007.2
20260507120004 49 346 0.0 4.3 0.00 0.29 0.00 76 1007.3
20260507115503 49 359 0.9 5.2 0.00 0.29 0.00 76 1007.4
20260507115004 49 358 0.0 5.2 0.00 0.29 0.00 78 1007.4
20260507114503 48 248 0.0 2.6 0.00 0.29 0.00 80 1007.5
20260507114003 48 0 0.0 0.0 0.00 0.29 0.00 82 1007.4
20260507113713 48 324 0.0 2.6 0.00 0.29 0.00 82 1007.4
20260507113003 47 324 0.0 2.6 0.00 0.29 0.00 82 1007.3
20260507112505 46 0 0.0 0.0 0.00 0.29 0.00 83 1007.3
20260507112003 46 178 0.0 3.5 0.00 0.29 0.00 84 1007.4
20260507111503 46 178 0.0 3.5 0.00 0.29 0.00 85 1007.3
20260507111003 45 0 0.0 0.0 0.00 0.29 0.00 86 1007.4
20260507110503 45 0 0.0 0.0 0.00 0.29 0.00 88 1007.4
20260507110003 44 0 0.0 0.0 0.00 0.29 0.00 90 1007.3
20260507105505 44 0 0.0 0.0 0.00 0.29 0.00 90 1007.2
20260507105003 44 0 0.0 0.0 0.00 0.29 0.00 88 1007.0
20260507104504 44 110 0.0 0.9 0.00 0.29 0.00 87 1006.8
20260507104003 44 110 0.0 0.9 0.00 0.29 0.00 88 1006.8
20260507103503 44 0 0.0 0.0 0.00 0.29 0.00 88 1006.7
20260507103003 44 0 0.0 0.0 0.00 0.29 0.00 87 1006.8
20260507102715 44 0 0.0 0.0 0.00 0.29 0.00 87 1006.8
20260507102003 44 0 0.0 0.0 0.00 0.29 0.00 86 1007.0
20260507101503 44 6 0.0 1.7 0.00 0.29 0.00 87 1006.9
20260507101214 44 6 0.0 1.7 0.00 0.29 0.00 87 1006.9
20260507100503 44 0 0.0 0.0 0.00 0.29 0.00 86 1006.8
20260507100003 44 0 0.0 0.0 0.00 0.29 0.00 88 1006.9
20260507095505 44 0 0.0 0.0 0.00 0.29 0.00 87 1007.0
20260507095003 45 0 0.0 0.0 0.00 0.29 0.00 86 1006.9
20260507094503 45 0 0.0 0.0 0.00 0.29 0.00 87 1006.9
20260507094213 44 0 0.0 0.0 0.00 0.29 0.00 87 1006.8
20260507093505 45 0 0.0 0.0 0.00 0.29 0.00 87 1007.0
20260507093003 45 0 0.0 0.0 0.00 0.29 0.00 88 1007.0
20260507092503 45 0 0.0 0.0 0.00 0.29 0.00 88 1007.1
20260507092003 45 0 0.0 0.0 0.00 0.29 0.00 89 1007.1
20260507091503 45 0 0.0 0.0 0.00 0.29 0.00 90 1007.2
20260507091003 45 0 0.0 0.0 0.00 0.29 0.00 91 1007.4
20260507090505 45 0 0.0 0.0 0.00 0.29 0.00 91 1007.4
20260507090004 45 0 0.0 0.0 0.00 0.29 0.00 92 1007.6
20260507085503 45 0 0.0 0.0 0.00 0.29 0.00 92 1007.4
20260507085003 45 0 0.0 0.0 0.00 0.29 0.00 92 1007.2
20260507084503 45 0 0.0 0.0 0.00 0.29 0.00 91 1006.9
20260507084005 45 0 0.0 0.0 0.00 0.29 0.00 92 1006.9
20260507083503 45 0 0.0 0.0 0.00 0.29 0.00 91 1006.9
20260507083003 45 0 0.0 0.0 0.00 0.29 0.00 91 1006.8
20260507082503 45 0 0.0 0.0 0.00 0.29 0.00 91 1006.8
20260507082003 45 0 0.0 0.0 0.00 0.29 0.00 91 1006.9
20260507081503 45 0 0.0 0.0 0.00 0.29 0.00 90 1006.9
20260507081215 45 0 0.0 0.0 0.00 0.29 0.00 90 1006.9
20260507080503 46 0 0.0 0.0 0.00 0.29 0.00 89 1006.8
20260507080213 46 0 0.0 0.0 0.00 0.29 0.00 89 1006.6
20260507075503 46 0 0.0 0.0 0.00 0.29 0.00 88 1006.8
20260507075005 46 18 0.0 0.9 0.00 0.29 0.00 88 1006.9
20260507074503 46 331 0.0 1.7 0.00 0.29 0.00 87 1007.1
20260507074003 46 318 0.0 1.7 0.00 0.29 0.00 89 1007.0
20260507073714 46 0 0.0 0.0 0.00 0.29 0.00 89 1006.9
20260507073003 46 0 0.0 0.0 0.00 0.29 0.00 88 1006.7
20260507072716 46 0 0.0 0.0 0.00 0.29 0.00 89 1006.8
20260507072003 46 0 0.0 0.0 0.00 0.29 0.00 88 1006.6
20260507071503 46 208 0.0 1.7 0.00 0.29 0.00 87 1006.5
20260507071003 46 208 0.0 1.7 0.00 0.29 0.00 88 1006.8
20260507070503 46 1 0.0 3.5 0.00 0.29 0.00 87 1006.8
20260507070212 46 1 0.0 3.5 0.00 0.29 0.00 86 1006.4
20260507065505 46 0 0.0 0.0 0.00 0.29 0.00 87 1006.2
20260507065003 46 0 0.0 0.0 0.00 0.29 0.00 87 1006.5
20260507064503 46 0 0.0 0.0 0.00 0.29 0.00 88 1006.5
20260507064003 46 0 0.0 0.0 0.00 0.29 0.00 87 1006.4
20260507063713 46 0 0.0 0.0 0.00 0.29 0.00 88 1006.2
20260507063003 47 0 0.0 0.0 0.00 0.29 0.00 88 1006.8
20260507062505 47 0 0.0 0.0 0.00 0.29 0.00 89 1006.8
20260507062214 47 0 0.0 0.0 0.00 0.29 0.00 90 1006.7
20260507061503 47 0 0.0 0.0 0.00 0.29 0.00 90 1006.7
20260507061003 47 0 0.0 0.0 0.00 0.29 0.00 90 1006.7
20260507060503 47 0 0.0 0.0 0.00 0.29 0.00 90 1006.9
20260507060005 47 0 0.0 0.0 0.00 0.29 0.00 90 1006.8
20260507055503 47 0 0.0 0.0 0.00 0.29 0.00 90 1006.4
20260507055003 47 0 0.0 0.0 0.00 0.29 0.00 91 1006.6
20260507054503 47 0 0.0 0.0 0.00 0.29 0.00 91 1006.7
20260507054003 47 0 0.0 0.0 0.00 0.29 0.00 91 1006.7
20260507053503 47 0 0.0 0.0 0.00 0.29 0.00 90 1006.8
20260507053005 47 0 0.0 0.0 0.00 0.29 0.00 90 1006.7
20260507052713 47 0 0.0 0.0 0.00 0.29 0.00 90 1006.8
20260507052003 47 0 0.0 0.0 0.00 0.29 0.00 90 1006.7
20260507051713 47 0 0.0 0.0 0.00 0.29 0.00 90 1006.7
20260507051005 48 0 0.0 0.0 0.00 0.29 0.00 89 1006.6
20260507050503 48 0 0.0 0.0 0.00 0.29 0.00 90 1006.3
20260507050003 48 0 0.0 0.0 0.00 0.29 0.00 90 1006.5
20260507045713 48 69 0.0 0.9 0.00 0.29 0.00 89 1006.4
20260507045214 48 69 0.0 0.9 0.00 0.29 0.00 89 1006.3
20260507044505 48 0 0.0 0.0 0.00 0.29 0.00 90 1006.6
20260507044003 48 0 0.0 0.0 0.00 0.29 0.00 90 1006.5
20260507043503 48 0 0.0 0.0 0.00 0.29 0.00 90 1006.5
20260507043003 48 0 0.0 0.0 0.00 0.29 0.00 89 1006.5
20260507042503 48 351 0.0 1.7 0.00 0.29 0.00 88 1006.4
20260507042005 48 348 0.0 3.5 0.00 0.29 0.00 89 1006.4
20260507041503 48 321 0.9 7.8 0.00 0.29 0.00 89 1006.8
20260507041003 48 323 1.7 7.8 0.00 0.29 0.00 88 1007.0
20260507040712 48 323 1.7 7.8 0.00 0.29 0.00 89 1006.7
20260507040003 48 302 0.0 6.1 0.00 0.29 0.00 90 1006.8
20260507035714 48 260 0.0 2.6 0.00 0.29 0.29 90 1006.7
20260507035213 49 326 0.0 3.5 0.01 0.29 0.29 90 1006.6
20260507034503 49 349 0.0 3.5 0.03 0.29 0.29 90 1006.6
20260507034003 49 183 0.0 3.5 0.04 0.29 0.29 91 1006.4
20260507033505 49 181 0.0 3.5 0.04 0.29 0.29 91 1006.4
20260507033004 50 354 0.0 3.5 0.04 0.29 0.29 91 1006.3
20260507032503 50 354 0.0 3.5 0.04 0.29 0.29 92 1006.3
20260507032003 50 0 0.0 0.0 0.05 0.29 0.29 92 1006.3
20260507031503 50 50 0.0 1.7 0.05 0.29 0.29 92 1006.3
20260507031005 50 7 0.0 1.7 0.05 0.29 0.29 92 1006.2
20260507030503 51 350 0.0 1.7 0.05 0.29 0.29 91 1006.3
20260507030003 51 220 0.0 3.5 0.05 0.29 0.29 91 1006.4
20260507025503 51 265 0.0 4.3 0.05 0.29 0.29 91 1006.4
20260507025215 51 285 0.9 5.2 0.04 0.28 0.28 90 1006.5
20260507024503 52 317 0.9 7.8 0.02 0.26 0.26 90 1006.5
20260507024003 52 344 1.7 10.4 0.01 0.25 0.25 89 1006.4
20260507023503 52 343 2.6 10.4 0.02 0.25 0.25 89 1006.3
20260507023005 52 323 1.7 6.1 0.03 0.25 0.25 90 1006.2
20260507022503 53 357 0.9 5.2 0.03 0.25 0.25 90 1006.1
20260507022003 53 324 0.0 4.3 0.03 0.24 0.24 91 1005.9
20260507021714 53 323 0.0 4.3 0.04 0.24 0.24 91 1005.9
20260507021005 54 288 0.0 4.3 0.05 0.24 0.24 91 1005.8
20260507020503 54 253 0.0 4.3 0.06 0.24 0.24 91 1005.6
20260507020003 54 331 0.0 6.1 0.07 0.24 0.24 91 1005.5
20260507015503 54 336 0.0 6.1 0.09 0.24 0.24 91 1005.4
20260507015005 54 11 0.0 1.7 0.09 0.24 0.24 92 1005.4
20260507014714 54 114 0.0 0.0 0.09 0.24 0.24 92 1005.4
20260507014212 55 0 0.0 0.0 0.09 0.24 0.24 92 1005.3
20260507013503 55 359 0.0 2.6 0.08 0.23 0.23 91 1005.1
20260507013003 55 359 0.0 2.6 0.07 0.22 0.22 91 1005.1
20260507012505 56 208 0.0 3.5 0.07 0.22 0.22 92 1005.1
20260507012003 56 252 0.0 3.5 0.06 0.21 0.21 91 1005.1
20260507011503 56 326 0.9 4.3 0.05 0.20 0.20 90 1005.1
20260507010505 58 350 0.9 5.2 0.03 0.18 0.18 90 1004.8
20260507010003 58 97 0.0 1.7 0.02 0.17 0.17 90 1004.7
20260507005713 59 0 0.0 0.0 0.01 0.16 0.16 91 1004.7
20260507005214 59 0 0.0 0.0 0.00 0.15 0.15 90 1004.4
20260507004505 59 0 0.0 0.0 0.00 0.15 0.15 90 1004.2
20260507004003 59 0 0.0 0.0 0.00 0.15 0.15 90 1004.1
20260507003508 59 0 0.0 0.0 0.00 0.15 0.15 90 1004.1
20260507003005 59 0 0.0 0.0 0.00 0.15 0.15 89 1004.0
20260507002713 59 0 0.0 0.0 0.00 0.15 0.15 89 1003.9
20260507002003 59 0 0.0 0.0 0.00 0.15 0.15 89 1004.0
20260507001503 60 0 0.0 0.0 0.00 0.15 0.15 88 1003.9
20260507001003 59 0 0.0 0.0 0.00 0.15 0.15 88 1004.0
20260507000713 59 211 0.0 0.9 0.00 0.15 0.15 89 1003.9
20260507000005 59 207 0.0 2.6 0.00 0.15 0.15 88 1003.8
20260506235503 59 207 0.0 2.6 0.00 0.15 0.15 89 1003.8
20260506235003 59 0 0.0 0.0 0.00 0.15 0.15 89 1003.7
20260506234503 59 0 0.0 0.0 0.00 0.15 0.15 89 1003.6
20260506234003 59 0 0.0 0.0 0.00 0.15 0.15 89 1003.6
20260506233505 59 0 0.0 0.0 0.00 0.15 0.15 89 1003.6
20260506233214 59 225 0.0 1.7 0.00 0.15 0.15 89 1003.5
20260506232713 60 206 0.0 1.7 0.00 0.15 0.15 88 1003.6
20260506232214 60 168 0.0 0.9 0.00 0.15 0.15 88 1003.6
20260506231504 60 210 0.9 7.8 0.00 0.15 0.15 88 1003.7
20260506231003 60 215 0.9 7.8 0.00 0.15 0.15 87 1003.7
20260506230503 60 225 0.0 3.5 0.00 0.15 0.15 88 1003.7
20260506230003 60 202 0.9 5.2 0.00 0.15 0.15 88 1003.7
20260506225505 60 199 0.9 5.2 0.00 0.15 0.15 87 1003.7
20260506225003 60 206 0.0 5.2 0.00 0.15 0.15 87 1003.7
20260506224503 60 209 0.0 5.2 0.00 0.15 0.15 87 1003.7
20260506224003 60 182 0.9 7.0 0.00 0.15 0.15 87 1003.7
20260506223503 60 186 0.9 7.0 0.00 0.15 0.15 87 1003.7
20260506223005 60 207 0.9 4.3 0.00 0.15 0.15 87 1003.7
20260506222712 60 201 0.9 6.1 0.00 0.15 0.15 87 1003.7
20260506222003 60 190 0.9 6.1 0.00 0.15 0.15 87 1003.9
20260506221504 61 190 0.9 5.2 0.00 0.15 0.15 87 1003.9
20260506221003 61 201 0.9 5.2 0.00 0.15 0.15 86 1003.8
20260506220505 61 210 0.9 5.2 0.00 0.15 0.15 86 1003.9
20260506220003 61 186 0.9 5.2 0.00 0.15 0.15 86 1003.9
20260506215503 61 180 0.9 4.3 0.00 0.15 0.15 86 1004.0
20260506215003 61 180 0.0 4.3 0.00 0.15 0.15 86 1003.9
20260506214505 62 202 0.9 7.0 0.00 0.15 0.15 86 1003.9
20260506214003 62 213 0.9 7.0 0.00 0.15 0.15 86 1003.9
20260506213503 62 212 0.0 6.1 0.00 0.15 0.15 87 1003.9
20260506213003 62 214 0.9 7.0 0.00 0.15 0.15 86 1003.9
20260506212505 62 204 0.9 7.0 0.00 0.15 0.15 86 1003.9
20260506212003 62 210 0.9 9.6 0.00 0.15 0.15 88 1004.0
20260506211503 62 222 0.0 9.6 0.00 0.15 0.15 88 1004.0
20260506211003 62 203 0.0 3.5 0.00 0.15 0.15 89 1004.1
20260506210505 62 157 0.0 2.6 0.00 0.15 0.15 89 1004.1
20260506210003 62 156 0.9 7.8 0.01 0.15 0.15 89 1004.1
20260506205503 62 189 0.9 7.8 0.02 0.15 0.15 89 1004.1
20260506205003 62 201 1.7 8.7 0.02 0.15 0.15 89 1004.2
20260506204503 62 203 2.6 11.3 0.03 0.15 0.15 89 1004.2
20260506204215 62 207 0.9 11.3 0.03 0.15 0.15 89 1004.2
20260506203503 62 270 0.0 1.7 0.04 0.15 0.15 91 1004.2
20260506203003 62 221 0.0 2.6 0.05 0.15 0.15 90 1004.2
20260506202714 62 213 0.0 2.6 0.05 0.15 0.15 90 1004.2
20260506202003 62 200 0.0 6.1 0.06 0.15 0.15 91 1004.3
20260506201715 62 197 0.9 8.7 0.06 0.15 0.15 90 1004.3
20260506201003 61 190 0.9 9.6 0.06 0.15 0.15 90 1004.2
20260506200503 62 196 0.0 6.1 0.06 0.15 0.15 91 1004.3
20260506200003 61 192 0.0 3.5 0.06 0.14 0.14 90 1004.3
20260506195505 62 231 0.0 1.7 0.05 0.13 0.13 91 1004.5
20260506195005 62 186 0.0 5.2 0.05 0.13 0.13 91 1004.5
20260506194713 62 204 0.0 7.0 0.05 0.13 0.13 91 1004.6
20260506194212 61 237 0.0 7.0 0.04 0.12 0.12 91 1004.7
20260506193505 61 0 0.0 0.0 0.04 0.11 0.11 91 1004.8
20260506193003 61 0 0.0 0.0 0.03 0.10 0.10 90 1004.7
20260506192713 62 0 0.0 0.0 0.03 0.10 0.10 90 1004.8
20260506192005 62 233 0.0 1.7 0.03 0.09 0.09 91 1004.9
20260506191713 62 233 0.0 1.7 0.03 0.09 0.09 91 1004.9
20260506191214 61 0 0.0 0.0 0.03 0.09 0.09 90 1004.9
20260506190505 61 0 0.0 0.0 0.04 0.09 0.09 90 1004.8
20260506190003 61 0 0.0 0.0 0.03 0.08 0.08 89 1004.7
20260506185503 61 0 0.0 0.0 0.03 0.08 0.08 89 1004.7
20260506185005 61 81 0.0 1.7 0.04 0.08 0.08 90 1004.9
20260506184503 61 81 0.0 1.7 0.04 0.08 0.08 90 1005.2
20260506184214 61 200 0.0 1.7 0.05 0.08 0.08 90 1005.4
20260506183505 61 216 0.9 4.3 0.04 0.07 0.07 89 1005.5
20260506183003 61 212 0.9 4.3 0.05 0.07 0.07 89 1005.6
20260506182715 61 208 0.0 4.3 0.05 0.07 0.07 90 1005.7
20260506182005 61 206 0.0 3.5 0.05 0.06 0.06 89 1006.0
20260506181503 61 242 0.0 2.6 0.05 0.06 0.06 89 1006.0
20260506181003 61 241 0.0 2.6 0.06 0.06 0.06 89 1005.9
20260506180505 61 204 0.0 6.1 0.05 0.05 0.05 89 1005.9
20260506180004 61 213 0.9 6.1 0.05 0.05 0.05 88 1006.1
20260506175503 61 219 0.0 3.5 0.05 0.05 0.05 88 1006.1
20260506175005 61 201 0.0 2.6 0.04 0.04 0.04 88 1006.2
20260506174503 61 213 0.0 2.6 0.04 0.04 0.04 87 1006.3
20260506174003 61 213 0.0 2.6 0.03 0.03 0.03 86 1006.4
20260506173504 62 210 0.0 3.5 0.03 0.03 0.03 84 1006.4
20260506173003 62 220 0.0 3.5 0.02 0.02 0.02 85 1006.5
20260506172503 62 225 0.0 1.7 0.01 0.01 0.01 83 1006.4
20260506172003 63 213 0.0 7.8 0.01 0.01 0.01 80 1006.4
20260506171505 63 210 0.0 7.8 0.01 0.01 0.01 79 1006.4
20260506171003 64 205 0.9 6.1 0.00 0.00 0.00 78 1006.3
20260506170503 64 205 0.9 6.1 0.00 0.00 0.00 74 1006.3
20260506170005 65 204 0.0 6.1 0.00 0.00 0.00 74 1006.3
20260506165503 66 232 0.0 4.3 0.00 0.00 0.00 72 1006.2
20260506165003 67 205 0.9 7.0 0.00 0.00 0.00 69 1006.3
20260506164504 67 199 0.9 7.0 0.00 0.00 0.00 67 1006.1